Weather History for ENRY - October, 2013

Change the Weather History Date:

Friday, October 11, 2013

  Actual Average Record
Temperature  
Mean Temperature 44 °F -  
Max Temperature 53 °F 45 °F 62 °F (2005)
Min Temperature 34 °F 35 °F 30 °F (2012)
Degree Days  
Heating Degree Days 22    
Moisture  
Dew Point 34 °F    
Average Humidity 74    
Maximum Humidity 93    
Minimum Humidity 43    
Precipitation  
Precipitation 0.00 in - - ()
Sea Level Pressure  
Sea Level Pressure 30.42 in    
Wind  
Wind Speed 5 mph ()    
Max Wind Speed 9 mph    
Max Gust Speed -    
Visibility 6.2 miles    
Events      
Averages and records for this station are not official NWS values.
T = Trace of Precipitation, MM = Missing Value Source: Averaged Metar Reports

Daily Weather History Graph

Daily Weather History Graph

Search for Another Location

Airport or City:

Trip Planner

Search our weather history database for the weather conditions in past years. The results will help you decide how hot, cold, wet, or windy it might be!

Date:

Astronomy

Oct. 11, 2013 Rise Set
Actual Time 7:45 AM CEST 6:20 PM CEST
Civil Twilight 7:04 AM CEST 7:01 PM CEST
Nautical Twilight 6:17 AM CEST 7:48 PM CEST
Astronomical Twilight 5:28 AM CEST 8:36 PM CEST
Moon 3:04 PM CEST (10/11) 10:59 PM CEST (10/11)
Length of Visible Light 11h 57m
Length of Day
10h 35m
Waxing Crescent, 44% of the Moon is Illuminated
Oct 11
Waxing Crescent
Oct 12
First Quarter
Oct 19
Full
Oct 27
Last Quarter
Nov 3
New

Hourly Weather History & Observations

Time (CEST) Temp. Windchill Dew Point Humidity Pressure Visibility Wind Dir Wind Speed Gust Speed Precip Events Conditions
12:20 AM 41.0 °F 35.2 °F 33.8 °F 76% 30.30 in 6.2 mi North 9.2 mph - N/A   Unknown
12:50 AM 39.2 °F 33.6 °F 33.8 °F 81% 30.30 in 6.2 mi North 8.1 mph - N/A   Unknown
1:20 AM 39.2 °F 33.0 °F 33.8 °F 81% 30.30 in 6.2 mi North 9.2 mph - N/A   Unknown
1:50 AM 37.4 °F 32.1 °F 33.8 °F 87% 30.33 in 6.2 mi North 6.9 mph - N/A   Unknown
2:00 AM 38 °F - 33 °F 77% 30.34 in 31 mi North 6.7 mph - -   Clear
2:20 AM 39.2 °F 33.6 °F 33.8 °F 81% 30.33 in 6.2 mi North 8.1 mph - N/A   Unknown
2:50 AM 37.4 °F 31.4 °F 33.8 °F 87% 30.33 in 6.2 mi NNE 8.1 mph - N/A   Unknown
3:20 AM 37.4 °F 33.8 °F 32.0 °F 81% 30.36 in 6.2 mi NE 4.6 mph - N/A   Unknown
3:50 AM 37.4 °F 32.8 °F 32.0 °F 81% 30.36 in 6.2 mi NNE 5.8 mph - N/A   Unknown
4:20 AM 37.4 °F 32.8 °F 32.0 °F 81% 30.36 in 6.2 mi North 5.8 mph - N/A   Unknown
4:50 AM 35.6 °F 31.7 °F 32.0 °F 87% 30.36 in 6.2 mi North 4.6 mph - N/A   Unknown
5:20 AM 35.6 °F 30.7 °F 32.0 °F 87% 30.39 in 6.2 mi North 5.8 mph - N/A   Unknown
5:50 AM 35.6 °F 29.9 °F 32.0 °F 87% 30.39 in 6.2 mi North 6.9 mph - N/A   Unknown
5:58 AM 35.6 °F 29.9 °F 32.0 °F 87% 30.39 in - North 6.9 mph - N/A   Clear
6:20 AM 35.6 °F 30.7 °F 32.0 °F 87% 30.39 in - North 5.8 mph - N/A   Clear
6:50 AM 35.6 °F 31.7 °F 32.0 °F 87% 30.39 in - NNE 4.6 mph - N/A   Clear
7:20 AM 35.6 °F 30.7 °F 32.0 °F 87% 30.39 in - North 5.8 mph - N/A   Clear
7:50 AM 35.6 °F 32.8 °F 32.0 °F 87% 30.39 in - NNE 3.5 mph - N/A   Clear
8:00 AM 35 °F - 32 °F 83% 30.43 in 31 mi NNE 2.2 mph - -   Clear
8:20 AM 35.6 °F 32.8 °F 32.0 °F 87% 30.42 in - NNE 3.5 mph - N/A   Clear
8:50 AM 35.6 °F 30.7 °F 32.0 °F 87% 30.42 in - NNE 5.8 mph - N/A   Clear
9:20 AM 37.4 °F - 32.0 °F 81% 30.42 in - Calm Calm - N/A   Clear
9:50 AM 39.2 °F 35.9 °F 33.8 °F 81% 30.42 in - NNE 4.6 mph - N/A   Clear
10:20 AM 42.8 °F 39.3 °F 35.6 °F 76% 30.45 in - North 5.8 mph - N/A   Clear
10:50 AM 44.6 °F 41.4 °F 35.6 °F 71% 30.45 in - NNE 5.8 mph - N/A   Clear
11:20 AM 46.4 °F 44.3 °F 35.6 °F 66% 30.45 in - NNE 4.6 mph - N/A   Clear
11:50 AM 46.4 °F 43.5 °F 35.6 °F 66% 30.45 in - NE 5.8 mph - N/A   Clear
12:20 PM 48.2 °F - 35.6 °F 62% 30.45 in - Variable 3.5 mph - N/A   Clear
12:50 PM 48.2 °F - 35.6 °F 62% 30.45 in - NNW 5.8 mph - N/A   Clear
1:20 PM 50.0 °F - 35.6 °F 58% 30.45 in - North 6.9 mph - N/A   Clear
1:50 PM 50.0 °F - 35.6 °F 58% 30.45 in - North 6.9 mph - N/A   Clear
2:00 PM 51 °F - 35 °F 43% 30.46 in 31 mi NNE 6.7 mph - -   Partly Cloudy
2:20 PM 51.8 °F - 35.6 °F 54% 30.45 in - North 4.6 mph - N/A   Clear
2:50 PM 51.8 °F - 35.6 °F 54% 30.45 in - NE 5.8 mph - N/A   Clear
3:20 PM 51.8 °F - 35.6 °F 54% 30.45 in - NNE 4.6 mph - N/A   Clear
3:50 PM 53.6 °F - 35.6 °F 51% 30.45 in - NNE 4.6 mph - N/A   Clear
4:20 PM 53.6 °F - 37.4 °F 54% 30.45 in - North 4.6 mph - N/A   Clear
4:50 PM 53.6 °F - 37.4 °F 54% 30.45 in - NNE 4.6 mph - N/A   Clear
5:20 PM 51.8 °F - 35.6 °F 54% 30.45 in - NE 4.6 mph - N/A   Clear
5:50 PM 51.8 °F - 33.8 °F 50% 30.45 in - NE 3.5 mph - N/A   Clear
6:20 PM 50.0 °F - 33.8 °F 54% 30.45 in - NE 2.3 mph - N/A   Clear
6:50 PM 46.4 °F - 35.6 °F 66% 30.45 in - NNE 2.3 mph - N/A   Clear
7:24 PM 42.8 °F 40.1 °F 35.6 °F 76% 30.48 in - NW 4.6 mph - N/A   Clear
7:50 PM 44.6 °F 42.2 °F 37.4 °F 76% 30.48 in - NW 4.6 mph - N/A   Clear
8:00 PM 44 °F - 39 °F 78% 30.49 in 31 mi NNW 4.5 mph - -   Clear
8:20 PM 41.0 °F - 37.4 °F 87% 30.48 in - NNW 2.3 mph - N/A   Clear
8:50 PM 41.0 °F - 37.4 °F 87% 30.48 in - Calm Calm - N/A   Clear
9:50 PM 39.2 °F 37.0 °F 35.6 °F 87% 30.51 in - NNE 3.5 mph - N/A   Clear
10:50 PM 39.2 °F 37.0 °F 35.6 °F 87% 30.51 in - North 3.5 mph - N/A   Clear
11:20 PM 39.2 °F - 35.6 °F 87% 30.51 in - NNW 2.3 mph - N/A   Clear
11:50 PM 37.4 °F 34.9 °F 35.6 °F 93% 30.51 in 6.2 mi North 3.5 mph - N/A   Unknown